Regional Weather Roundup
Issued by NWS

Home | Current Version | Previous Version | Text Only | Print | Product List | Glossary On
Versions: 1 2 3 4 5 6 7 8 9 10 11 12 13 14 15 16 17 18 19 20 21 22 23 24 25 26 27 28 29 30 31 32 33 34 35 36 37 38 39 40 41 42 43 44 45 46 47 48 49 50
000
ASUS46 KPQR 211810
RWROR

OREGON REGIONAL WEATHER ROUNDUP
NATIONAL WEATHER SERVICE PORTLAND OR
1000 AM PST SAT JAN 21 2017

NOTE: "FAIR" INDICATES FEW OR NO CLOUDS BELOW 12,000 FEET WITH
NO SIGNIFICANT WEATHER AND/OR OBSTRUCTIONS TO VISIBILITY.

ORZ001>013-211900-
NORTHWEST OREGON


CITY           SKY/WX    TMP DP  RH WIND       PRES   REMARKS
ASTORIA        MOSUNNY   47  37  68 E9        29.31R
6HR MIN TEMP:  42; 6HR MAX TEMP:  47; 6HR PCP: TRACE;

NEWPORT        LGT RAIN  43  41  93 SE15      29.32R
PORTLAND       PTSUNNY   40  36  86 E13       29.38R WCI  32
6HR MIN TEMP:  38; 6HR MAX TEMP:  41; 6HR PCP:  0.04;

VANCOUVER WA   CLOUDY    40  36  86 E10       29.37R WCI  33
6HR MIN TEMP:  38; 6HR MAX TEMP:  41; 6HR PCP:  0.04;

SCAPPOOSE      CLOUDY    41  39  93 SE6       29.37R
6HR MIN TEMP:  37; 6HR MAX TEMP:  41; 6HR PCP:  0.10;

HILLSBORO      CLOUDY    43  40  89 SE5       29.35R
6HR MIN TEMP:  40; 6HR MAX TEMP:  43; 6HR PCP:  0.06;

AURORA         LGT RAIN  44  39  82 VRB3      29.37R
6HR MIN TEMP:  39; 6HR MAX TEMP:  45; 6HR PCP:  0.01;

MCMINNVILLE    RAIN      43  40  89 S5        29.37R FOG
6HR MIN TEMP:  40; 6HR MAX TEMP:  44; 6HR PCP:  0.04;

SALEM          LGT RAIN  44  40  85 SE8       29.35R
6HR MIN TEMP:  39; 6HR MAX TEMP:  45; 6HR PCP:  0.05;

CORVALLIS        N/A     45  39  81 S13       29.35R
EUGENE         CLOUDY    45  41  86 S16       29.37R
6HR MIN TEMP:  40; 6HR MAX TEMP:  45; 6HR PCP:  0.04;

$$

ORZ021-028-211900-
SOUTHWEST OREGON


CITY           SKY/WX    TMP DP  RH WIND       PRES   REMARKS
NORTH BEND     CLOUDY    50  46  87 SW17G25   29.39R
6HR MIN TEMP:  45; 6HR MAX TEMP:  50; 6HR PCP:  0.12;

BROOKINGS      CLOUDY    48  45  89 VRB7      29.54R
ROSEBURG       LGT RAIN  45  40  82 S7        29.42R
6HR MIN TEMP:  43; 6HR MAX TEMP:  45; 6HR PCP:  0.09;

SEXTON SUMMIT  SNOW      31  30  96 S17G31    29.40R VSB<1/4 WCI  19
6HR MIN TEMP:  30; 6HR MAX TEMP:  31; 6HR PCP:  0.55;

MEDFORD        RAIN      43  38  82 S10       29.50R
6HR MIN TEMP:  36; 6HR MAX TEMP:  43; 6HR PCP:  0.25;

$$

ORZ014>016-041-211900-
COLUMBIA GORGE


CITY           SKY/WX    TMP DP  RH WIND       PRES   REMARKS
TROUTDALE      CLOUDY    41  36  82 E22G29    29.38R
6HR MIN TEMP:  38; 6HR MAX TEMP:  41; 6HR PCP:  0.02;

THE DALLES     PTSUNNY   33  32  96 CALM      29.47R FOG
6HR MIN TEMP:  32; 6HR MAX TEMP:  35;

$$

ORZ029>031-041-044-049-050-061>064-502-503-505>511-211900-
EASTERN OREGON


CITY           SKY/WX    TMP DP  RH WIND       PRES   REMARKS
REDMOND        CLOUDY    34  24  67 SE5       29.39R WCI  30
6HR MIN TEMP:  28; 6HR MAX TEMP:  34; 6HR PCP: TRACE;

BEND           CLOUDY    34  27  75 CALM      29.39R
PRINEVILLE     PTSUNNY   36  27  69 S13       29.40R WCI  27
KLAMATH FALLS  CLOUDY    34  29  82 SW13      29.49R WCI  25
6HR MIN TEMP:  30; 6HR MAX TEMP:  34; 6HR PCP: TRACE;

LAKEVIEW       CLOUDY    32  25  74 S16       29.52R WCI  21
HERMISTON      MOSUNNY   32  32 100 CALM      29.46R FOG
6HR MIN TEMP:  26; 6HR MAX TEMP:  32;

PENDLETON      MOSUNNY   33  32  96 SE3       29.43R FOG
6HR MIN TEMP:  31; 6HR MAX TEMP:  34;

JOHN DAY       CLOUDY    37  28  69 S18       29.45R WCI  27
MEACHAM        CLOUDY    34  24  67 CALM      29.40R
6HR MIN TEMP:  27; 6HR MAX TEMP:  34;

LA GRANDE      PTSUNNY   36  28  75 S16       29.45R WCI  26
6HR MIN TEMP:  36; 6HR MAX TEMP:  37;

BAKER CITY     CLOUDY    31  28  89 E7        29.47R WCI  24
6HR MIN TEMP:  24; 6HR MAX TEMP:  31;

BURNS          PTSUNNY   19  19 100 CALM      29.50R
6HR MIN TEMP:  15; 6HR MAX TEMP:  20; 6HR PCP: TRACE;

ROME             N/A     39  26  59 S13       29.50R WCI  31
6HR MIN TEMP:  25; 6HR MAX TEMP:  39;

ONTARIO        CLOUDY    34  32  92 CALM      29.58R FOG
6HR MIN TEMP:  33; 6HR MAX TEMP:  34; 6HR PCP:  0.03;

$$



USA.gov is the U.S. government's official web portal to all federal, state and local government web resources and services.